Regional Weather Roundup
Issued by NWS

Home | Current Version | Previous Version | Text Only | Print | Product List | Glossary On
Versions: 1 2 3 4 5 6 7 8 9 10 11 12 13 14 15 16 17 18 19 20 21 22 23 24 25 26 27 28 29 30 31 32 33 34 35 36 37 38 39 40 41 42 43 44 45 46 47 48 49 50
000
ASUS43 KMPX 181601
RWRMN
WEATHER ROUNDUP FOR MINNESOTA
NATIONAL WEATHER SERVICE TWIN CITIES/CHANHASSEN MN
1000 AM CST MON DEC 18 2017


NOTE: "FAIR" INDICATES FEW OR NO CLOUDS BELOW 12,000 FEET WITH NO
SIGNIFICANT WEATHER AND/OR OBSTRUCTIONS TO VISIBILITY. N/A MEANS
CURRENT SKY AND/OR WEATHER CONDITIONS ARE NOT AVAILABLE.

MNZ060>063-068>070-181700-
   Twin Cities Metro

CITY           SKY/WX    TMP DP  RH WIND       PRES   REMARKS
TWIN CITIES    CLOUDY    31  27  85 S10       29.79S WCI  22
ST PAUL        CLOUDY    29  26  89 SE6       29.81S FOG     WCI  23
CRYSTAL        CLOUDY    32  24  72 S12       29.76F WCI  23
BLAINE         PTSUNNY   34  28  80 S12G17    29.76S WCI  25
LAKEVILLE      CLOUDY    28  27  93 S8        29.79S FOG     WCI  20
EDEN PRAIRIE   CLOUDY    32  26  78 S10       29.77S WCI  24
SOUTH ST PAUL  CLOUDY    30  27  86 S9        29.80R WCI  22
LAKE ELMO      PTSUNNY   30  28  93 S12       29.80R FOG     WCI  21
$$
MNZ001>005-007-008-013>017-022>024-027-028-181700-
   Northwest Minnesota

CITY           SKY/WX    TMP DP  RH WIND       PRES   REMARKS
BEMIDJI        CLOUDY    29  27  92 SW7       29.57F WCI  22
HALLOCK        MIX PCPN  34  30  86 S14       29.50S WCI  24
ROSEAU         LGT RAIN  34  28  80 SW12      29.51F WCI  25
WARROAD        MIX PCPN  30  27  86 SW12      29.51S WCI  21
CROOKSTON      CLOUDY    28  27  93 SW10      29.57S WCI  19
FOSSTON        CLOUDY    27  25  93 S10       29.59R WCI  17
DETROIT LAKES  CLOUDY    30  28  93 SW7       29.62F WCI  23
MOORHEAD       CLOUDY    28  27  93 CALM      29.61F
PARK RAPIDS    CLOUDY    28  26  92 SW8       29.61S WCI  20
MAHNOMEN       CLOUDY    28  26  92 S13       29.58F WCI  17
$$
MNZ006-009>011-018-025>026-181700-
   North Central Minnesota

CITY           SKY/WX    TMP DP  RH WIND       PRES   REMARKS
BAUDETTE       PTSUNNY   30  26  85 SW10      29.51S WCI  21
FLAG ISLAND    CLOUDY    28  25  86 SW14      29.46F WCI  17
INTL FALLS     MOSUNNY   32  27  81 SW15      29.53S HAZE    WCI  22
WASKISH        CLOUDY    32  28  86 SW7       29.55S WCI  26
BIG FORK       CLOUDY    30  27  86 S9G16     29.58F FOG     WCI  22
LONGVILLE      CLOUDY    28  27  93 S3        29.62F
GRAND RAPIDS   MOSUNNY   27  24  89 S8        29.64F WCI  19
CRANE LAKE     CLOUDY    28  27  93 S8        29.59F WCI  20
ORR            CLOUDY    28  25  86 SW9       29.56F WCI  20
COOK           CLOUDY    28  27  93 SW8       29.60F WCI  20
WALKER         FAIR      28  26  90 SW9       29.60S WCI  19
$$
MNZ012-019>021-037-181700-
   Northeast Minnesota

CITY           SKY/WX    TMP DP  RH WIND       PRES   REMARKS
DULUTH         CLOUDY    26  25  96 SW14      29.66S FOG     WCI  14
ELY            CLOUDY    27  27 100 SW8       29.60S WCI  18
HIBBING        CLOUDY    24  22  91 VRB6      29.63S FOG     WCI  17
EVELETH        CLOUDY    25  21  84 SW8G17    29.64S HAZE    WCI  16
DULUTH HARBOR  CLOUDY    28  27  93 SW13      29.72S FOG     WCI  18
TWO HARBORS    CLOUDY    30  25  80 SW9       29.66S HAZE    WCI  22
SILVER BAY     CLOUDY    28  25  86 SW6       29.65S FOG     WCI  22
GRAND MARAIS     N/A     34  31  88 SW21      29.66F WCI  22
G MARAIS ARPRT FOG       25  21  86 S3        29.61S VSB 1/2
$$
MNZ029>031-032-039>041-046>048-054>057-064-181700-
   West Central Minnesota

CITY           SKY/WX    TMP DP  RH WIND       PRES   REMARKS
FERGUS FALLS   CLOUDY    28  28 100 S7        29.67F WCI  21
WHEATON        CLOUDY    32  27  80 SW7       29.68F WCI  26
MORRIS         CLOUDY    30  28  93 SW9       29.68S WCI  22
ALEXANDRIA     CLOUDY    30  27  88 SW9       29.67F WCI  22
ELBOW LAKE     PTSUNNY   29  28  94 SW9       29.67S WCI  20
WADENA         CLOUDY    28  27  93 SW5       29.63F WCI  23
GLENWOOD       CLOUDY    28  27  93 S9        29.68F WCI  20
APPLETON       CLOUDY    34  28  80 SW9       29.71S WCI  26
BENSON         CLOUDY    32  28  86 SW9       29.71F WCI  24
ORTONVILLE     CLOUDY    32  27  80 S6        29.70S WCI  26
MADISON        CLOUDY    36  30  80 SW12      29.72S
WILLMAR        FAIR      32  28  86 SW7       29.73F WCI  26
$$
MNZ033>034-036-042>043-049>051-058-059-181700-
   Central Minnesota

CITY           SKY/WX    TMP DP  RH WIND       PRES   REMARKS
ST CLOUD       CLOUDY    28  25  88 S6        29.72S WCI  22
SAUK CENTRE    FAIR      30  27  87 SW8       29.69S WCI  22
PAYNESVILLE    MOSUNNY   31  28  90 SW8       29.72S WCI  23
AITKIN         CLOUDY    27  23  86 S6        29.65F WCI  20
PINE RIVER     CLOUDY    25  23  93 S3        29.67F FOG
BRAINERD       CLOUDY    29  25  85 S12       29.67F WCI  19
STAPLES        CLOUDY    30  27  86 S8        29.64F WCI  23
LONG PRAIRIE   FAIR      30  27  86 S9        29.68S WCI  22
LITTLE FALLS   CLOUDY    30  23  74 S6        29.70S WCI  24
LITCHFIELD     CLOUDY    32  28  86 SW5       29.74S WCI  27
BUFFALO        CLOUDY    32  26  80 S6        29.76S WCI  26
MAPLE LAKE     CLOUDY    32  28  86 S6        29.75S WCI  26
HUTCHINSON     CLOUDY    32  28  86 S7        29.76F WCI  26
$$
MNZ037-044-045-052-053-181700-
   East Central Minnesota

CITY           SKY/WX    TMP DP  RH WIND       PRES   REMARKS
PRINCETON      CLOUDY    32  27  80 S7        29.73F WCI  26
MORA           SUNNY     27  23  86 S6        29.74F FOG     WCI  20
CAMBRIDGE      SUNNY     32  27  80 S8        29.75S WCI  25
RUSH CITY      PTSUNNY   28  25  88 S7        29.74F FOG     WCI  21
MOOSE LAKE     CLOUDY    28  27  93 S9        29.69S FOG     WCI  20
HINCKLEY       CLOUDY    27  27 100 S3        29.73F FOG
CLOQUET        CLOUDY    27  25  93 S13       29.67F FOG     WCI  16
MCGREGOR       CLOUDY    28  27  93 S9        29.67F WCI  20
$$
MNZ071>073-080-081-089-090-097-098-181700-
   Southwest Minnesota

CITY           SKY/WX    TMP DP  RH WIND       PRES   REMARKS
MONTEVIDEO     CLOUDY    32  28  86 W6        29.72F WCI  26
GRANITE FALLS  MOSUNNY   33  29  86 S8        29.76S WCI  26
CANBY          CLOUDY    35  28  76 SW9       29.74S WCI  28
MARSHALL       CLOUDY    34  27  75 SW15      29.74F WCI  24
REDWOOD FALLS  CLOUDY    33  29  85 SW13      29.75F WCI  24
OLIVIA         CLOUDY    32  28  86 SW12      29.74S WCI  23
PIPESTONE      CLOUDY    28  27  93 SW8       29.76F WCI  20
WINDOM           N/A     30  18  59 SW10      29.79S WCI  21
WORTHINGTON    SUNNY     31  27  85 SW15      29.79F WCI  20
JACKSON        SUNNY     30  27  86 SW13      29.80F WCI  20
SLAYTON        CLOUDY    29  27  90 SW14      29.78F WCI  19
$$
MNZ065>067-074>077-082>085-091>093-181700-
   South Central Minnesota

CITY           SKY/WX    TMP DP  RH WIND       PRES   REMARKS
MANKATO        CLOUDY    29  26  89 S12       29.80F WCI  19
NEW ULM        CLOUDY    30  25  80 SW12      29.78S WCI  21
ST JAMES       MOSUNNY   32  27  80 S9        29.80F WCI  24
FAIRMONT       CLOUDY    31  27  85 SW15      29.82F WCI  20
GLENCOE        MOSUNNY   32  32  99 S12       29.76F WCI  23
FARIBAULT      CLOUDY    28  27  93 S7        29.81F FOG     WCI  21
OWATONNA       SUNNY     30  27  86 S14       29.81F FOG     WCI  20
WASECA         CLOUDY    30  28  93 S10       29.83S FOG     WCI  21
$$
MNZ078>079-086>088-094>096-181700-
   Southeast Minnesota

CITY           SKY/WX    TMP DP  RH WIND       PRES   REMARKS
ROCHESTER      FOG       28  28 100 S13       29.84S VSB 1/2 WCI  17
RED WING       CLOUDY    30  27  86 SE5       29.82F FOG     WCI  25
STANTON        CLOUDY    31  28  88 S9        29.80F FOG     WCI  23
DODGE CENTER   CLOUDY    27  27 100 S7        29.82S FOG     WCI  19
WINONA         CLOUDY    32  30  93 S6        29.88S WCI  26
PRESTON        FOG       27  26  96 SW6       29.86S VSB 1   WCI  21
$$
ABBREVIATIONS USED IN REMARKS
   TC - TEMPERATURES IN CELSIUS
  WCI - WIND CHILL INDEX
   HX - HEAT INDEX
  VSB - VISIBILITY
$$




USA.gov is the U.S. government's official web portal to all federal, state and local government web resources and services.